GW3031 Weather Reports


time (UTC)temp
F
wind
direction
speed
knots
gust
knots
rain 1hr
in
rain 24hr
in
rain mn
in
humidity
%
barometer
mb
20260510071557 53 0 0.0 0.0 0.00 0.00 0.00 90 1010.3
20260510070058 53 0 0.0 0.0 0.00 0.00 0.00 90 1010.1
20260510064559 53 0 0.0 0.0 0.00 0.00 0.00 89 1009.9
20260510063059 54 0 0.0 0.0 0.00 0.00 0.00 89 1009.7
20260510061600 54 0 0.0 0.0 0.00 0.00 0.00 88 1009.7
20260510054600 55 0 0.0 0.0 0.00 0.00 0.00 88 1009.9
20260510053059 56 0 0.0 0.0 0.00 0.00 0.00 87 1010.0
20260510051604 56 0 0.0 0.0 0.00 0.00 0.00 87 1010.0
20260510050059 57 0 0.0 0.0 0.00 0.00 0.00 87 1010.0
20260510044559 57 0 0.0 0.0 0.00 0.00 0.00 87 1009.9
20260510043103 57 0 0.0 0.0 0.00 0.00 0.00 86 1009.8
20260510041601 57 0 0.0 0.0 0.00 0.00 0.00 85 1009.8
20260510040100 58 0 0.0 0.0 0.00 0.00 0.00 85 1009.7
20260510034601 58 0 0.0 0.0 0.00 0.00 0.00 84 1009.6
20260510033134 59 0 0.0 0.0 0.00 0.00 0.00 82 1009.6
20260510031602 59 0 0.0 0.0 0.00 0.00 0.00 82 1009.6
20260510030059 60 0 0.0 0.0 0.00 0.00 0.00 81 1009.7
20260510024607 60 0 0.0 0.0 0.00 0.00 0.00 81 1009.6
20260510023102 60 0 0.0 0.0 0.00 0.00 0.00 80 1009.4
20260510021600 60 0 0.0 0.0 0.00 0.00 0.00 80 1009.4
20260510020100 61 0 0.0 0.0 0.00 0.00 0.00 80 1009.2
20260510014602 61 0 0.0 0.0 0.00 0.00 0.00 78 1009.2
20260510013102 62 0 0.0 0.0 0.00 0.00 0.00 77 1008.9
20260510011559 63 0 0.0 0.0 0.00 0.00 0.00 74 1008.6
20260510004600 65 0 0.0 0.0 0.00 0.00 0.00 71 1008.2
20260510003107 66 0 0.0 0.0 0.00 0.00 0.00 68 1008.0
20260510001603 67 0 0.0 0.0 0.00 0.00 0.00 66 1007.9
20260510000104 68 0 0.0 0.0 0.00 0.00 0.00 65 1007.7
20260509234615 69 0 0.0 0.0 0.00 0.00 0.00 63 1007.6
20260509233100 70 0 0.0 0.0 0.00 0.00 0.00 62 1007.4
20260509231602 71 0 0.0 0.0 0.00 0.00 0.00 60 1007.5
20260509230106 71 0 0.0 0.9 0.00 0.00 0.00 59 1007.4
20260509224603 72 0 0.0 0.9 0.00 0.00 0.00 59 1007.4
20260509223104 72 0 0.0 0.9 0.00 0.00 0.00 57 1007.4
20260509221559 72 0 0.0 0.0 0.00 0.00 0.00 57 1007.4
20260509220059 72 0 0.0 0.9 0.00 0.00 0.00 54 1007.4
20260509214601 72 0 0.0 0.0 0.00 0.00 0.00 56 1007.3
20260509213100 73 0 0.0 0.9 0.00 0.00 0.00 55 1007.4
20260509211600 73 0 0.0 0.9 0.00 0.00 0.00 55 1007.3
20260509210104 73 0 0.0 1.7 0.00 0.00 0.00 56 1007.4
20260509204607 74 0 0.0 2.6 0.00 0.00 0.00 54 1007.4
20260509203115 74 0 0.0 5.2 0.00 0.00 0.00 55 1007.3
20260509201559 73 0 0.0 1.7 0.00 0.00 0.00 56 1007.2
20260509200100 73 0 0.0 3.5 0.00 0.00 0.00 56 1007.7
20260509194558 74 0 0.0 2.6 0.00 0.00 0.00 56 1007.9
20260509193100 72 0 0.0 4.3 0.00 0.00 0.00 57 1008.2
20260509191600 71 264 0.0 4.3 0.00 0.00 0.00 58 1008.5
20260509190100 70 0 0.0 0.9 0.00 0.00 0.00 59 1008.6
20260509184601 70 0 0.0 3.5 0.00 0.00 0.00 61 1008.5
20260509183113 69 0 0.0 0.9 0.00 0.00 0.00 61 1008.7
20260509181611 69 0 0.0 0.0 0.00 0.00 0.00 62 1009.0
20260509180116 68 0 0.0 0.0 0.00 0.00 0.00 62 1009.4
20260509174600 69 0 0.0 0.0 0.00 0.00 0.00 62 1009.6
20260509173111 70 0 0.0 2.6 0.00 0.00 0.00 59 1009.5
20260509171600 71 0 0.0 1.7 0.00 0.00 0.00 58 1009.6
20260509170101 69 0 0.0 3.5 0.00 0.00 0.00 60 1009.7
20260509164600 68 0 0.0 2.6 0.00 0.00 0.00 61 1009.8
20260509163109 68 0 0.0 7.0 0.00 0.00 0.00 61 1009.9
20260509161603 69 0 0.0 4.3 0.00 0.00 0.00 59 1009.9
20260509160059 71 0 0.0 3.5 0.00 0.00 0.00 58 1009.8
20260509154614 70 0 0.0 4.3 0.00 0.00 0.00 60 1010.0
20260509153110 70 0 0.0 2.6 0.00 0.00 0.00 60 1010.1
20260509151609 69 0 0.0 3.5 0.00 0.00 0.00 58 1010.1
20260509150100 68 0 0.0 1.7 0.00 0.00 0.00 59 1010.3
20260509144601 65 0 0.0 1.7 0.00 0.00 0.00 63 1010.4
20260509143110 64 0 0.0 0.0 0.00 0.00 0.00 66 1010.7
20260509141602 61 0 0.0 3.5 0.00 0.00 0.00 65 1010.8
20260509140058 60 0 0.0 2.6 0.00 0.00 0.00 67 1010.6
20260509134600 59 0 0.0 0.9 0.00 0.00 0.00 65 1010.7
20260509133107 59 0 0.0 1.7 0.00 0.00 0.00 67 1010.7
20260509131559 59 0 0.0 1.7 0.00 0.00 0.00 66 1010.8
20260509130115 59 0 0.0 3.5 0.00 0.00 0.00 66 1010.7
20260509124601 59 138 0.0 7.8 0.00 0.00 0.00 65 1010.6
20260509123100 58 243 0.0 5.2 0.00 0.00 0.00 65 1010.5
20260509121600 58 0 0.0 0.9 0.00 0.00 0.00 65 1010.5
20260509120101 58 0 0.0 3.5 0.00 0.00 0.00 65 1010.4
20260509114558 57 0 0.0 2.6 0.00 0.00 0.00 65 1010.5
20260509113059 57 0 0.0 1.7 0.00 0.00 0.00 63 1010.4
20260509111606 58 0 0.0 1.7 0.00 0.00 0.00 61 1010.3
20260509110100 58 0 0.0 0.9 0.00 0.00 0.00 59 1010.2
20260509104611 58 0 0.0 0.9 0.00 0.00 0.00 58 1010.2
20260509103111 58 0 0.0 0.9 0.00 0.00 0.00 58 1010.2
20260509101600 58 0 0.0 0.9 0.00 0.00 0.00 58 1010.0
20260509100059 58 0 0.0 0.9 0.00 0.00 0.00 59 1009.9
20260509094600 58 0 0.0 2.6 0.00 0.00 0.00 58 1009.8
20260509093103 57 0 0.0 0.9 0.00 0.00 0.00 59 1010.0
20260509091559 57 0 0.0 2.6 0.00 0.00 0.00 59 1010.1
20260509090100 57 0 0.0 0.9 0.00 0.00 0.00 59 1010.2
20260509084608 57 0 0.0 1.7 0.00 0.00 0.00 59 1010.3
20260509083111 57 0 0.0 1.7 0.00 0.00 0.00 59 1010.4
20260509081609 57 0 0.0 5.2 0.00 0.00 0.00 59 1010.6
20260509074604 57 188 0.0 5.2 0.00 0.00 0.00 59 1010.8
20260509073100 57 0 0.0 4.3 0.00 0.00 0.00 59 1010.8